Content
SEND FEEDBACK

Daily
Averages
Monthly
Summary
Canada

VANCOUVER, BRITISH COLUMBIA


Home > North America > Canada > British Columbia
Elevation: 7 feet     Latitude: 49 11N     Longitude: 123 10W

WEATHER
 
SELECT A DAY
Number of Records: 249,213;   Date Range: 5/15/97 - 4/23/14
 
SHARE

PRINT THIS DATA

[ ← Previous Day ]
WEATHER ALMANAC - MARCH 4, 2013
[ Next Day → ]
[ °C ]   °F
Weather ElementAverageHighLow
Temperature39.1 °F44.6 °F (12:15 pm)32 °F (12:35 am)
Dewpoint34.3 °F37.4 °F (1:55 pm)28.4 °F (11:55 pm)
Humidity84.4 %100 % (12:35 am)53 % (11:55 pm)
Barometer30.16 in30.30 in (12:35 am)29.96 in (11:15 pm)
Wind Speed3.7 mph10.4 mph (10:35 pm)
Wind Gust17.3 mph (10:35 pm)
Weather ElementAverage
Visibility9.9 mi
Wind DirectionESE (112.7 °)

Weather ElementTotal
Precipitation---
Heating Degree Days26.7 (Base 65)
Averaged from 67 records on March 4, 2013
WEATHER CONDITIONS BREAKOUT
WIND DIRECTION BREAKOUT
WEATHER BY HOUR - MARCH 4, 2013
[ °C ]   °F
Local TimeTemperatureDewpointHumidityBarometerVisibilityWind DirectionWind SpeedGust SpeedPrecipitationEventsConditions
12:35 AM32.0 °F32.0 °F100 %30.30 in10.0 miCalmClear
12:55 AM32.0 °F32.0 °F100 %30.30 in10.0 miNorthClear
1:15 AM32.0 °F32.0 °F100 %30.29 in10.0 miCalmClear
1:35 AM32.0 °F32.0 °F100 %30.29 in10.0 miCalmClear
2:15 AM32.0 °F32.0 °F100 %30.30 in10.0 miCalmClear
2:35 AM32.0 °F32.0 °F100 %30.30 in10.0 miCalmPartly Cloudy
3:15 AM33.8 °F33.8 °F100 %30.29 in10.0 miCalmOvercast
3:35 AM32.0 °F32.0 °F100 %30.29 in10.0 miCalmScattered Clouds
3:55 AM32.0 °F32.0 °F100 %30.28 in10.0 miCalmClear
4:15 AM32.0 °F32.0 °F100 %30.28 in10.0 miCalmClear
4:35 AM32.0 °F32.0 °F100 %30.28 in9.0 miCalmClear
4:55 AM32.0 °F32.0 °F100 %30.28 in8.0 miCalmClear
5:15 AM32.0 °F32.0 °F100 %30.27 in7.0 miCalmClear
5:35 AM32.0 °F32.0 °F100 %30.27 in10.0 miCalmClear
5:55 AM32.0 °F32.0 °F100 %30.27 in9.0 miCalmClear
6:15 AM32.0 °F32.0 °F100 %30.27 in10.0 miCalmClear
6:35 AM32.0 °F32.0 °F100 %30.26 in9.0 miCalmPartly Cloudy
6:55 AM35.6 °F35.6 °F100 %30.25 in10.0 miNE (50°)5.8 mphClear
7:15 AM37.4 °F33.8 °F87 %30.25 in10.0 miNE (50°)5.8 mphClear
7:35 AM37.4 °F32.0 °F81 %30.25 in10.0 miCalmClear
7:55 AM37.4 °F32.0 °F81 %30.25 in10.0 miENE (60°)3.5 mphClear
8:15 AM37.4 °F32.0 °F81 %30.25 in10.0 miCalmClear
8:35 AM39.2 °F33.8 °F81 %30.25 in10.0 miNE (40°)5.8 mphClear
8:55 AM39.2 °F33.8 °F81 %30.25 in10.0 miNNE (30°)4.6 mphClear
9:15 AM39.2 °F33.8 °F81 %30.24 in10.0 miNorth (360°)5.8 mphClear
9:35 AM39.2 °F35.6 °F87 %30.24 in10.0 miNorth (10°)5.8 mphClear
9:55 AM39.2 °F35.6 °F87 %30.24 in10.0 miNE (40°)3.5 mphClear
10:15 AM41.0 °F35.6 °F81 %30.24 in10.0 miCalmClear
10:35 AM41.0 °F35.6 °F81 %30.23 in10.0 miNE (40°)3.5 mphClear
10:55 AM41.0 °F35.6 °F81 %30.23 in10.0 miCalmClear
11:15 AM42.8 °F35.6 °F76 %30.22 in10.0 miNorth (10°)3.5 mphClear
11:35 AM42.8 °F35.6 °F76 %30.21 in10.0 miNE (50°)4.6 mphClear
11:55 AM42.8 °F35.6 °F76 %30.20 in10.0 miNE (40°)5.8 mphClear
12:15 PM44.6 °F35.6 °F71 %30.20 in10.0 miNorth (360°)5.8 mphClear
12:35 PM42.8 °F35.6 °F76 %30.19 in10.0 miNorth (350°)8.1 mphClear
12:55 PM42.8 °F35.6 °F76 %30.18 in10.0 miNorth (350°)8.1 mphClear
1:15 PM42.8 °F35.6 °F76 %30.17 in10.0 miNorth (350°)6.9 mphClear
1:35 PM42.8 °F35.6 °F76 %30.15 in10.0 miNNW (340°)8.1 mphClear
1:55 PM42.8 °F37.4 °F81 %30.14 in10.0 miNorth (350°)9.2 mphClear
2:15 PM42.8 °F37.4 °F81 %30.13 in10.0 miNorth (360°)8.1 mphClear
2:35 PM42.8 °F37.4 °F81 %30.12 in10.0 miNNW (340°)8.1 mphClear
2:55 PM44.6 °F37.4 °F76 %30.11 in10.0 miNorth (350°)9.2 mphClear
3:15 PM44.6 °F37.4 °F76 %30.11 in10.0 miNNW (340°)9.2 mphClear
3:35 PM42.8 °F37.4 °F81 %30.09 in10.0 miNNW (340°)8.1 mphClear
3:55 PM42.8 °F37.4 °F81 %30.08 in10.0 miNorth (350°)8.1 mphClear
4:15 PM42.8 °F37.4 °F81 %30.07 in10.0 miNorth (350°)8.1 mphClear
4:35 PM42.8 °F37.4 °F81 %30.06 in10.0 miNNW (340°)5.8 mphClear
4:55 PM42.8 °F37.4 °F81 %30.06 in10.0 miNNW (340°)5.8 mphClear
5:15 PM42.8 °F37.4 °F81 %30.05 in10.0 miNorth (350°)5.8 mphClear
5:35 PM42.8 °F37.4 °F81 %30.04 in10.0 miNorth (350°)3.5 mphClear
5:55 PM41.0 °F37.4 °F87 %30.04 in10.0 miNorth (360°)4.6 mphClear
6:15 PM41.0 °F37.4 °F87 %30.03 in10.0 miCalmClear
6:35 PM39.2 °F37.4 °F93 %30.03 in10.0 miCalmClear
7:15 PM37.4 °F37.4 °F100 %30.02 in10.0 miCalmClear
7:35 PM39.2 °F37.4 °F93 %30.01 in9.0 miCalmClear
7:55 PM37.4 °F37.4 °F100 %30.01 in10.0 miCalmClear
8:15 PM37.4 °F37.4 °F100 %29.99 in10.0 miCalmClear
8:35 PM37.4 °F37.4 °F100 %29.99 in10.0 miCalmClear
8:55 PM39.2 °F35.6 °F87 %29.99 in10.0 miNE (40°)4.6 mphClear
9:15 PM44.6 °F32.0 °F61 %29.99 in10.0 miNE (40°)3.5 mphClear
9:35 PM44.6 °F30.2 °F57 %29.99 in10.0 miNE (50°)5.8 mphClear
9:55 PM44.6 °F30.2 °F57 %29.98 in10.0 miNE (50°)4.6 mphClear
10:15 PM44.6 °F30.2 °F57 %29.99 in10.0 miEast (80°)5.8 mphClear
10:35 PM44.6 °F30.2 °F57 %29.98 in10.0 miENE (60°)10.4 mph17.3 mphClear
10:55 PM44.6 °F30.2 °F57 %29.97 in10.0 miENE (60°)5.8 mphClear
11:15 PM44.6 °F30.2 °F57 %29.96 in10.0 miENE (60°)6.9 mphClear
11:55 PM44.6 °F28.4 °F53 %29.96 in10.0 miENE (60°)9.2 mph17.3 mphClear
Hourly data recorded from CZBB, located miles away from Vancouver, British Columbia







STORIES FROM OUR PARTNERS